KSJCKMEV

Guest
Details From KSJC - San Jose Norman Y Mineta Intl
To KMEV - Minden Tahoe
Flight Number -
Tags Generated
Created
Modified
Stats Distance 142 nm / 264 km
Max Altitude 0 ft / 0 m
Waypoints 2
Social Downloads 2
Likes 0
Share VATSIM

Download

Looking for another format? Having issues loading an existing format? Contact us
Advertisement - Login to hide

Notes

Generated

Route

KSJC KMEV

ID Type Via Altitude Latitude Longitude Leg Dist Tot Dist Heading (true) Name
O KSJC APT - 0 ft / 0 m 37.36589˚ -121.93660˚ - 0 nm - -
O KMEV APT - 0 ft / 0 m 38.99923˚ -119.74897˚ 142 nm 142 nm 46° / 47° Minden Tahoe

Altitude Profile

Advertisement - Login to hide

KSJC

Details ICAO KSJC (SJC)
Name San Jose Norman Y Mineta Intl
Region United States
Timezone America/Los_Angeles (UTC-7.0)
Stats Elevation 62 ft / 19 m (AMSL)
Location 37.362375° -121.929544°
Runways 3
Magnetic Variation 13.297° E

METAR

KSJC 270453Z 32007KT 10SM CLR 15/10 A3005 RMK AO2 SLP175 T01500100

Decode

TAF

KSJC 270039Z 2701/2724 30012KT P6SM FEW040 FEW060 FM270500 31008KT P6SM FEW018 FM270800 VRB04KT P6SM SCT015 FM271700 30007KT P6SM SKC

Decode

Departure Runways

ID Width Length Bearing (true) Bearing (mag) Surface Threshold Offset Overrun Length
11 98 ft / 30 m 4,600 ft / 1,402 m 138.94° 125.64° Asphalt 0 ft / 0 m 0 ft / 0 m
12L 151 ft / 46 m 11,002 ft / 3,354 m 138.93° 125.63° Concrete 1,306 ft / 398 m 131 ft / 40 m
12R 151 ft / 46 m 11,003 ft / 3,354 m 138.93° 125.63° Concrete 1,302 ft / 397 m 200 ft / 61 m
29 98 ft / 30 m 4,600 ft / 1,402 m 318.94° 305.64° Asphalt 0 ft / 0 m 0 ft / 0 m
30L 151 ft / 46 m 11,003 ft / 3,354 m 318.95° 305.65° Concrete 2,543 ft / 775 m 98 ft / 30 m
30R 151 ft / 46 m 11,002 ft / 3,354 m 318.95° 305.65° Concrete 2,536 ft / 773 m 151 ft / 46 m

KMEV

Details ICAO KMEV
Name Minden Tahoe
Region United States
Timezone America/Los_Angeles (UTC-7.0)
Stats Elevation 4,726 ft / 1,440 m (AMSL)
Location 38.999784° -119.750505°
Runways 4
Magnetic Variation 13.251° E

METAR

KMEV 270455Z AUTO 01004KT 10SM SCT050 10/07 A3010 RMK AO2

Decode

TAF

Not found

Destination Runways

ID Width Length Bearing (true) Bearing (mag) Surface Threshold Offset Overrun Length
12 75 ft / 23 m 5,305 ft / 1,617 m 134.91° 121.66° Asphalt 0 ft / 0 m 0 ft / 0 m
12L 59 ft / 18 m 2,202 ft / 671 m 135.11° 121.86° Dirt 0 ft / 0 m 0 ft / 0 m
12R 75 ft / 23 m 5,298 ft / 1,615 m 134.91° 121.66° Asphalt 0 ft / 0 m 0 ft / 0 m
16 98 ft / 30 m 7,407 ft / 2,258 m 179.79° 166.54° Asphalt 0 ft / 0 m 0 ft / 0 m
30 75 ft / 23 m 5,305 ft / 1,617 m 314.92° 301.67° Asphalt 0 ft / 0 m 0 ft / 0 m
30L 75 ft / 23 m 5,298 ft / 1,615 m 314.91° 301.66° Asphalt 0 ft / 0 m 0 ft / 0 m
30R 59 ft / 18 m 2,202 ft / 671 m 315.11° 301.86° Dirt 0 ft / 0 m 0 ft / 0 m
34 98 ft / 30 m 7,407 ft / 2,258 m 359.79° 346.54° Asphalt 0 ft / 0 m 0 ft / 0 m

Popular Alternatives